星链-34062 (STARLINK-34062)

导读

STARLINK-34062是美国星链星座的卫星,于2025年5月14日发射,属于SpaceX星链互联网星座组网卫星。星链项目旨在构建全球卫星互联网,为全球偏远地区、海洋等场景提供高速宽带服务,该卫星加入星座后,进一步拓展了星链的覆盖范围与服务能力。

基本信息
目录编号:
64021
目录名称:
STARLINK-34062
国际标识:
2025-101AD
轨道中心:
EARTH
卫星名称:
星链-34062
卫星全名:
星链-34062 (STARLINK-34062)
卫星状态:
在轨 (已飞行396 天)
发射日期:
2025-05-14 UTC
国别 :
美国 (US)
星等 :
--
轨道信息
数据来源 国际轨道数据 AOE轨道数据
星历时间 2026-06-14T01:11:32+0800
8小时前
查看轨道信息
2026-06-10T05:00:00+0800
4天前
查看轨道信息
半长轴 6861.049km 6861.146km
偏心率 0.0003578 0.0001039
轨道倾角 42.993° 42.998°
近地点辐角 276.474° 260.656°
升交点赤经 175.437° 197.139°
平近点角 83.570° 190.129°
近地点 480.457km 482.296km
远地点 485.367km 483.722km
周期 94.264分钟 94.266分钟
每日圈数 15.276258 15.275935
详细信息
固有亮度:
5
最大亮度:
2.5
卫星平台:
Starlink V1.0
覆盖范围:
全球
运营商:
太空探索技术公司
运营商所在国:
美国
制造商(研发单位):
太空探索技术公司
制造商所在国:
美国
使用方式:
暂无
卫星简介
Starlink 计划是 SpaceX 推出的全球卫星互联网项目,通过发射低轨道卫星,为全球尤其是偏远地区提供高速、低延迟的互联网服务。自 2019 年起,Starlink 已部署数千颗卫星,旨在缩小全球数字鸿沟,推动互联网普及。该项目还为军事、航空等行业提供通信支持,带来广泛经济效益。
2D轨道图
3D轨道图
轨道高度分析图
轨道倾角分析图
轨道综合分析图
查看轨道综合分析图